Regional Weather Roundup
Issued by NWS

Home | Current Version | Previous Version | Text Only | Print | Product List | Glossary On
Versions: 1 2 3 4 5 6 7 8 9 10 11 12 13 14 15 16 17 18 19 20 21 22 23 24 25 26 27 28 29 30 31 32 33 34 35 36 37 38 39 40 41 42 43 44 45 46 47 48 49 50
957
ASUS43 KOAX 220902
RWRNE

WEATHER ROUNDUP FOR NEBRASKA
NATIONAL WEATHER SERVICE OMAHA NE
400 AM CDT FRI MAY 22 2015

NOTES: SATELLITE DATA IS BEING USED TO AUGMENT CLOUD COVER ABOVE
       12000 FEET.
       "FAIR" INDICATES FEW OR NO CLOUDS BELOW 12,000 FEET WITH NO
       SIGNIFICANT WEATHER AND/OR OBSTRUCTIONS TO VISIBILITY.

  * THESE STATIONS DO NOT REPORT WEATHER SUCH AS RAIN...SNOW OR FOG.

NEZ001>004-019>022-054>056-221000-
NEBRASKA PANHANDLE

CITY           SKY/WX    TMP DP  RH WIND       PRES   REMARKS
SCOTTSBLUFF    CLOUDY    51  44  77 SE10      30.09F
ALLIANCE       CLOUDY    50  43  77 SE12      30.10F
CHADRON        CLOUDY    53  43  68 SE15      30.09F
KIMBALL          N/A    N/A N/A N/A MISG        N/A
SIDNEY         CLOUDY    48  43  82 S10       30.11F
$$

NEZ057>060-069>072-079>082-221000-
SOUTHWEST NEBRASKA

CITY           SKY/WX    TMP DP  RH WIND       PRES   REMARKS
NORTH PLATTE   MOCLDY    45  41  86 E7        30.16F
IMPERIAL       CLOUDY    48  43  82 SE8       30.13F
LEXINGTON      CLOUDY    43  40  89 CALM      30.18F
MCCOOK         CLOUDY    47  43  86 SE6       30.16F
$$

NEZ005>010-023>029-035>040-094-221000-
NORTH CENTRAL NEBRASKA

CITY           SKY/WX    TMP DP  RH WIND       PRES   REMARKS
VALENTINE      CLEAR     45  38  76 CALM      30.16S
AINSWORTH      CLEAR     41  38  86 S7        30.17S
BROKEN BOW     PTCLDY    40  37  89 CALM      30.18F
ORD            PTCLDY    38  34  85 CALM      30.18F
$$

NEZ041-046>049-061>064-073>077-083>087-221000-
SOUTH CENTRAL NEBRASKA

CITY           SKY/WX    TMP DP  RH WIND       PRES   REMARKS
GRAND ISLAND   MOCLDY    48  40  73 CALM      30.20F
HASTINGS       MOCLDY    47  41  80 CALM      30.20S
KEARNEY *      MOCLDY    46  39  76 CALM      30.20S
$$

NEZ011>018-030>034-042>045-221000-
NORTHEAST NEBRASKA

CITY           SKY/WX    TMP DP  RH WIND       PRES   REMARKS
NORFOLK        CLEAR     44  37  76 CALM      30.18F
BLAIR          PTCLDY    51  40  64 W5        30.19S
COLUMBUS *     PTCLDY    45  36  70 CALM      30.22F
FREMONT        PTCLDY    49  42  77 CALM      30.19F
TEKAMAH        CLEAR     54  39  57 CALM      30.19S
$$

NEZ050>053-065>068-078-088>093-221000-
SOUTHEAST NEBRASKA

CITY           SKY/WX    TMP DP  RH WIND       PRES   REMARKS
LINCOLN        MOCLDY    46  40  79 N3        30.21F
OMAHA EPPLEY   PTCLDY    58  40  51 CALM      30.19F
FALLS CITY     PTCLDY    50  44  80 CALM      30.20S
$$

NEZ044-045-051>053-067-221000-
OMAHA AREA

CITY           SKY/WX    TMP DP  RH WIND       PRES   REMARKS
OMAHA EPPLEY   PTCLDY    58  40  51 CALM      30.19F
BLAIR          PTCLDY    51  40  64 W5        30.19S
FREMONT        PTCLDY    49  42  77 CALM      30.19F
OFFUTT AFB     PTCLDY    44  41  90 E1        30.18F
$$



USA.gov is the U.S. government's official web portal to all federal, state and local government web resources and services.